[[{"header":{"parameterUnit":"m.s-1","parameterCategory":1,"la1":30.2991,"la2":30.254,"lo1":-89.0895,"lo2":-89.0444,"dy":0.0017,"dx":0.0017,"nx":28,"ny":28,"refTime":"2023-08-11T09:00:00:Z","depth":0,"parameterNumber":2,"parameterNumberName":"U-component_of_WINDS"},"data":[0,0,0,0,0,0,0,0,0,0,0,0,0,0,0,0,0,0,0,0,0,0,0,0,0,0,0,0,0,0,0,0,0,0,0,0,0,0,0,0,0,0,0,0,0,0,0,0,0,0,0,0,0,0,0,0,0,0,5.0171,5.0172,0,5.0282,5.0284,5.0285,5.0218,5.0215,5.0212,5.0209,5.0322,5.0328,5.0334,0,0,0,0,0,0,0,0,0,0,0,0,0,4.9895,4.9901,5.017,5.0172,5.0173,5.0282,5.0284,5.0285,5.0219,5.0215,5.0211,5.0207,5.032,5.0327,5.0334,0,0,0,0,0,0,0,0,0,0,0,0,0,5.0012,4.9903,5.017,5.0153,5.0153,5.0282,5.0284,5.0286,5.022,5.0215,5.021,5.0205,5.0318,5.0327,5.0335,5.0487,0,0,5.0363,5.0367,0,0,0,0,0,0,0,0,5.0005,5.0022,5.0154,5.0155,5.0154,5.0231,5.0228,5.0353,5.0221,5.0194,5.0209,5.0203,5.0296,5.0306,5.0338,5.0492,5.0497,5.0364,5.0369,5.0373,5.0376,0,0,0,0,0,0,0,4.9997,5.0017,5.0215,5.0156,5.0156,5.0139,5.015,5.0252,5.0271,5.0196,5.0192,5.0206,5.0295,5.0329,5.034,5.0499,5.0363,5.0371,5.0377,5.0381,5.0779,5.0784,0,0,0,0,0,0,4.9991,5.0011,5.0211,5.0218,5.0067,5.0148,5.016,5.0212,5.0269,5.0273,5.021,5.0202,5.0316,5.033,5.0344,5.0521,5.0373,5.0381,5.0387,5.0774,5.078,5.0786,0,0,0,0,0,0,4.9985,5.0009,5.0207,5.0113,5.0137,5.0158,5.0216,5.0216,5.0251,5.028,5.0282,5.0242,5.0313,5.0331,5.0451,5.0525,5.0385,5.0394,5.0768,5.0776,5.0783,5.0881,0,0,0,0,0,0,4.9978,5.0008,5.0067,5.0115,5.0142,5.0314,5.022,5.0222,5.0266,5.0258,5.031,5.0314,5.0311,5.0438,5.046,5.0534,5.0401,5.0761,5.0771,5.078,5.0871,5.0891,5.0908,0,0,0,0,0,4.9968,5.0091,5.007,5.0095,5.0216,5.0318,5.0333,5.0327,5.0273,5.0331,5.0349,5.0313,5.0514,5.0451,5.0475,5.0553,5.0756,5.0768,5.078,5.0863,5.0887,5.0907,0,0,0,0,0,0,5.0051,5.0097,5.0074,5.0216,5.0264,5.0306,5.038,5.0354,5.0417,5.0406,5.0395,5.0407,5.0532,5.0555,5.0484,5.0701,5.0626,5.0643,5.0681,5.0704,5.0722,5.0713,5.0408,0,0,0,0,0,5.0085,5.0165,5.0201,5.0322,5.0347,5.036,5.0404,5.0395,5.0443,5.0463,5.049,5.0537,5.061,5.0659,5.0729,5.0875,5.0883,5.094,5.0959,5.0974,5.0988,5.1062,5.1087,5.0824,5.0824,5.0824,0,0,5.0158,5.0193,5.0244,5.034,5.0375,5.0456,5.0377,5.0467,5.0526,5.0476,5.059,5.0612,5.0664,5.0796,5.0856,5.0819,5.1062,5.0989,5.1,5.1006,5.1077,5.1102,5.1124,5.0832,5.083,5.0829,0,0,5.033,5.0367,5.047,5.0507,5.0561,5.0568,5.0593,5.064,5.0652,5.0766,5.0729,5.0799,5.0927,5.0964,5.1,5.1184,5.1151,5.1208,5.1303,5.1376,5.1396,5.1415,5.1476,5.1499,5.1222,5.1222,5.1222,0,5.0413,5.0535,5.0526,5.0618,5.0659,5.0618,5.0721,5.0757,5.0832,5.086,5.0819,5.0976,5.1008,5.1147,5.1191,5.1223,5.1249,5.12,5.1394,5.1413,5.1429,5.1488,5.1512,5.1228,5.1228,5.1227,5.1226,0,5.0632,5.0716,5.0793,5.0865,5.0915,5.1013,5.1017,5.1069,5.1055,5.1066,5.1181,5.1219,5.1293,5.1326,5.1314,5.1462,5.1437,5.1396,5.132,5.1461,5.1515,5.1538,5.1237,5.1235,5.1233,5.1232,0,0,5.0859,5.0924,5.0952,5.0982,5.1038,5.1103,5.1197,5.1269,5.1312,5.1365,5.1441,5.1549,5.151,5.155,5.1542,5.1607,5.1745,5.1556,5.1557,5.1587,5.1906,5.1934,5.1961,5.1725,5.1729,5.1732,5.19,0,5.1032,5.1196,5.119,5.1343,5.1418,5.1379,5.146,5.1502,5.1515,5.158,5.1593,5.1668,5.1613,5.1636,5.1699,5.1715,5.1808,5.1703,5.1792,5.1796,5.1777,5.199,5.2021,5.2177,5.1922,5.1925,5.1928,0,5.1256,5.1315,5.1474,5.1516,5.1547,5.1621,5.1685,5.1748,5.1794,5.1798,5.1843,5.1823,5.1916,5.1839,5.1965,5.1894,5.193,5.1943,5.1949,5.1955,5.1868,5.1998,5.2228,5.225,5.1963,5.196,5.1957,0,5.1401,5.152,5.163,5.1658,5.171,5.1762,5.1786,5.1827,5.187,5.1926,5.1953,5.202,5.2055,5.2106,5.2104,5.205,5.223,5.2155,5.2234,5.2234,5.2271,5.2268,5.2507,5.2301,5.2301,5.23,5.23,0,5.1593,5.1691,5.1695,5.1763,5.187,5.1862,5.1969,5.1987,5.2024,5.2092,5.2064,5.2128,5.2123,5.2188,5.2188,5.2289,5.2307,5.231,5.2308,5.2311,5.231,5.2333,5.232,5.2306,5.2305,5.2304,5.2303,0,5.1772,5.178,5.1896,5.1935,5.1947,5.2025,5.2058,5.212,5.213,5.2216,5.2236,5.2251,5.2325,5.2329,5.2415,5.2414,5.2537,5.2525,5.2521,5.2518,5.2595,5.2586,5.2853,5.2886,5.2662,5.2665,5.2666,0,5.1893,5.1967,5.2014,5.2058,5.2084,5.2156,5.2199,5.2193,5.2239,5.2295,5.235,5.2422,5.2478,5.2599,5.2616,5.2681,5.2668,5.2757,5.2677,5.2676,5.2664,5.2659,5.2664,5.2772,5.2774,5.2776,5.2778,0,5.2104,5.2103,5.2167,5.2231,5.2283,5.2333,5.238,5.2417,5.2416,5.2469,5.2544,5.2588,5.2675,5.2745,5.2808,5.2831,5.2803,5.2803,5.2824,5.2826,5.2819,5.2819,5.256,5.2796,5.2794,5.2793,5.2792,5.2791,5.2255,5.2318,5.236,5.243,5.2464,5.2508,5.2567,5.2584,5.2647,5.2716,5.2709,5.2792,5.2833,5.2914,5.2942,5.3005,5.2975,5.3006,5.3013,5.302,5.3027,5.2812,5.3017,5.3017,5.3016,5.3016,5.3016,0,5.2462,5.2486,5.2551,5.2616,5.2671,5.2642,5.2691,5.2738,5.2811,5.2852,5.2908,5.2993,5.306,5.3082,5.3147,5.3193,5.3182,5.321,5.3205,5.3209,5.3053,5.3026,5.3218,5.3218,5.3218,5.3218,5.3217,5.3217,5.2575,5.2678,5.2682,5.2801,5.2824,5.2905,5.2935,5.2974,5.3006,5.3102,5.3157,5.3171,5.3204,5.327,5.333,5.3334,5.3358,5.339,5.3389,5.3242,5.3221,5.3202,5.3176,5.3396,5.3397,5.354,5.3542,5.3543]},{"header":{"parameterUnit":"m.s-1","parameterCategory":1,"la1":30.2991,"la2":30.254,"lo1":-89.0895,"lo2":-89.0444,"dy":0.0017,"dx":0.0017,"nx":28,"ny":28,"refTime":"2023-08-11T09:00:00:Z","depth":0,"parameterNumber":3,"parameterNumberName":"V-component_of_WINDS"},"data":[0,0,0,0,0,0,0,0,0,0,0,0,0,0,0,0,0,0,0,0,0,0,0,0,0,0,0,0,0,0,0,0,0,0,0,0,0,0,0,0,0,0,0,0,0,0,0,0,0,0,0,0,0,0,0,0,0,0,4.0075,4.0076,0,4.0173,4.0174,4.0175,4.0156,4.0154,4.0152,4.015,4.0248,4.0252,4.0256,0,0,0,0,0,0,0,0,0,0,0,0,0,3.9867,3.9871,4.0075,4.0077,4.0078,4.0173,4.0174,4.0176,4.0156,4.0154,4.0152,4.015,4.0246,4.0251,4.0256,0,0,0,0,0,0,0,0,0,0,0,0,0,3.996,3.9872,4.0075,4.008,4.0081,4.0173,4.0174,4.0176,4.0156,4.0154,4.0151,4.0149,4.0245,4.0251,4.0257,4.035,0,0,4.0276,4.0279,0,0,0,0,0,0,0,0,3.9955,3.9968,4.0078,4.0079,4.0081,4.015,4.0136,4.0234,4.0157,4.0128,4.015,4.0147,4.0217,4.0225,4.0249,4.0354,4.0358,4.0277,4.0281,4.0284,4.0285,0,0,0,0,0,0,0,3.9949,3.9964,4.0114,4.0079,4.0081,4.0075,4.0085,4.0155,4.0186,4.013,4.0129,4.0141,4.0217,4.0243,4.0252,4.036,4.0277,4.0282,4.0286,4.0289,4.0542,4.0545,0,0,0,0,0,0,3.9941,3.9959,4.0111,4.0117,4.001,4.0081,4.0093,4.013,4.0185,4.0191,4.0143,4.014,4.0234,4.0244,4.0255,4.0365,4.0284,4.029,4.0293,4.0539,4.0543,4.0546,0,0,0,0,0,0,3.9937,3.9955,4.0107,4.0037,4.0056,4.0088,4.013,4.0134,4.016,4.0195,4.02,4.0164,4.0232,4.0246,4.0326,4.0368,4.0292,4.0298,4.0536,4.054,4.0544,4.0587,0,0,0,0,0,0,3.9931,3.9954,3.999,4.0038,4.006,4.0178,4.0133,4.0137,4.0171,4.0167,4.0216,4.0222,4.0231,4.0316,4.0332,4.0376,4.0303,4.0532,4.0538,4.0543,4.0582,4.0592,4.0601,0,0,0,0,0,3.9924,3.9998,3.9992,4.0011,4.0107,4.018,4.0192,4.0202,4.0175,4.0211,4.0233,4.022,4.0361,4.0325,4.0342,4.0388,4.0529,4.0536,4.0542,4.0578,4.059,4.0601,0,0,0,0,0,0,3.9954,4.0005,3.9999,4.0092,4.0132,4.0177,4.0223,4.0216,4.0264,4.0259,4.0268,4.0279,4.036,4.0382,4.0341,4.0479,4.0441,4.0451,4.0462,4.0474,4.0484,4.0476,4.0308,0,0,0,0,0,3.9972,4.0028,4.0069,4.0147,4.0167,4.0192,4.0224,4.0228,4.027,4.0286,4.0315,4.0354,4.0407,4.0442,4.0493,4.0585,4.0594,4.0625,4.0635,4.0642,4.0651,4.0699,4.0712,4.0567,4.0567,4.0567,0,0,4.0009,4.0043,4.0078,4.0154,4.0186,4.0242,4.0206,4.0268,4.031,4.0295,4.0372,4.0394,4.0439,4.0525,4.0564,4.0546,4.0693,4.0651,4.0657,4.0661,4.0707,4.0721,4.0733,4.0572,4.0571,4.057,0,0,4.0104,4.0137,4.0205,4.0237,4.0285,4.03,4.0316,4.0362,4.0376,4.0454,4.0444,4.0492,4.0584,4.0616,4.0644,4.0749,4.0738,4.0765,4.0815,4.0862,4.0873,4.0883,4.0919,4.0932,4.0774,4.0774,4.0774,0,4.0144,4.023,4.024,4.0303,4.0335,4.0325,4.0392,4.0423,4.0485,4.0506,4.0485,4.0599,4.0628,4.072,4.0746,4.0769,4.0786,4.076,4.0871,4.0881,4.0891,4.0925,4.0938,4.0777,4.0776,4.0776,4.0776,0,4.0275,4.0334,4.0383,4.0443,4.0481,4.0546,4.0564,4.0601,4.0601,4.0618,4.0695,4.073,4.0787,4.0809,4.081,4.0901,4.0887,4.0869,4.083,4.0907,4.0939,4.0953,4.0781,4.078,4.0779,4.0778,0,0,4.0393,4.0457,4.0475,4.0501,4.0553,4.0598,4.0661,4.0717,4.0747,4.079,4.0842,4.0918,4.0901,4.0933,4.0937,4.0978,4.1056,4.0954,4.0955,4.097,4.1155,4.1168,4.1183,4.105,4.1052,4.1054,4.1151,0,4.0492,4.0605,4.0615,4.0715,4.0768,4.0759,4.0813,4.085,4.0867,4.0913,4.0932,4.0985,4.0959,4.0978,4.1018,4.1038,4.1093,4.1032,4.1096,4.1098,4.1084,4.12,4.1215,4.1304,4.1164,4.1166,4.1167,0,4.0624,4.067,4.0776,4.0817,4.084,4.0889,4.094,4.0986,4.1026,4.1035,4.107,4.1068,4.113,4.109,4.1175,4.1133,4.1159,4.1173,4.1177,4.1182,4.1137,4.1208,4.1334,4.1346,4.1188,4.1186,4.1185,0,4.0697,4.0786,4.086,4.0883,4.0934,4.0968,4.0991,4.1029,4.1061,4.1105,4.1126,4.1176,4.1203,4.1242,4.1253,4.1223,4.1336,4.1298,4.1344,4.1344,4.1368,4.1366,4.1499,4.1387,4.1387,4.1387,4.1387,0,4.0806,4.0871,4.0893,4.0939,4.101,4.102,4.1089,4.111,4.1143,4.1191,4.1185,4.123,4.1242,4.1289,4.1297,4.1365,4.1378,4.1386,4.1387,4.1386,4.1384,4.1402,4.1396,4.1391,4.139,4.1389,4.1388,0,4.09,4.0918,4.0998,4.104,4.1052,4.1102,4.1137,4.1179,4.1195,4.1255,4.127,4.1294,4.1348,4.1363,4.1428,4.1433,4.1512,4.1509,4.1499,4.1499,4.1544,4.1538,4.1691,4.1711,4.1588,4.1589,4.159,0,4.0968,4.1017,4.1064,4.1096,4.112,4.1172,4.1204,4.1215,4.1249,4.1297,4.1334,4.1387,4.143,4.1517,4.1539,4.1588,4.1584,4.1634,4.1591,4.1587,4.1583,4.1579,4.1583,4.1642,4.1643,4.1644,4.1645,0,4.1086,4.1092,4.114,4.1191,4.123,4.127,4.1308,4.1334,4.135,4.1388,4.1444,4.1477,4.1543,4.1595,4.1644,4.1665,4.1657,4.1658,4.1671,4.167,4.1662,4.1665,4.152,4.1655,4.1654,4.1653,4.1653,4.1652,4.1168,4.121,4.1249,4.1302,4.1332,4.1368,4.1409,4.143,4.1476,4.1531,4.1534,4.1594,4.163,4.1695,4.1719,4.1764,4.1749,4.1769,4.1773,4.1778,4.178,4.1655,4.1774,4.1773,4.1773,4.1773,4.1773,0,4.1284,4.1308,4.1357,4.141,4.1451,4.1441,4.1482,4.1517,4.157,4.1605,4.1647,4.1709,4.1759,4.1785,4.1835,4.1866,4.1863,4.1878,4.1875,4.188,4.1792,4.1775,4.1879,4.1879,4.1879,4.1879,4.1879,4.1879,4.1349,4.1419,4.143,4.1514,4.1538,4.1596,4.1621,4.1652,4.168,4.175,4.1792,4.1809,4.184,4.1891,4.1936,4.1942,4.1959,4.1976,4.198,4.1897,4.1886,4.1876,4.186,4.198,4.198,4.2064,4.2064,4.2065]}]]